Regional Weather Roundup
Issued by NWS

Home | Current Version | Previous Version | Text Only | Print | Product List | Glossary Off
Versions: 1 2 3 4 5 6 7 8 9 10 11 12 13 14 15 16 17 18 19 20 21 22 23 24 25 26 27 28 29 30 31 32 33 34 35 36 37 38 39 40 41 42 43 44 45 46 47 48 49 50

000
ASUS45 KBOU 272007
RWRCO

WEATHER ROUNDUP FOR COLORADO
NATIONAL WEATHER SERVICE DENVER/BOULDER CO
100 PM MST TUE JAN 27 2015

NOTE: "FAIR" INDICATES FEW OR NO CLOUDS BELOW 12000 FEET WITH NO
SIGNIFICANT WEATHER AND/OR OBSTRUCTIONS TO VISIBILITY.

COZ001>005-013-030-031-272100-
...NORTHWEST COLORADO...

CITY           SKY/WX    TMP DP  RH WIND       PRES   REMARKS
CRAIG          SUNNY     38  26  62 SW3       30.26F
HAYDEN         SUNNY     39  25  56 CALM      30.26F
MEEKER         SUNNY     38  25  59 CALM      30.25F
MOUNT WERNER   NOT AVBL
STEAMBOAT SPGS SUNNY     38  21  49 CALM      30.26F
WALDEN         MOSUNNY   39  23  52 CALM      30.28F
$$

COZ006>008-011-272100-
...WEST CENTRAL VALLEYS...

CITY           SKY/WX    TMP DP  RH WIND       PRES   REMARKS
GRAND JUNCTION CLOUDY    47  28  47 W6        30.27F
MONTROSE       SUNNY     56  22  26 NW7       30.26F
EAGLE          MOSUNNY   39  25  56 CALM      30.33F
RIFLE          SUNNY     50  24  36 VRB5      30.25F
DELTA          PTSUNNY   55  26  32 SW3       30.25F
NUCLA          CLOUDY    54  27  35 W10       30.33F
$$

COZ017>023-064>068-272100-
...SOUTHWEST COLORADO...

CITY           SKY/WX    TMP DP  RH WIND       PRES   REMARKS
DURANGO        CLOUDY    49  28  44 W5        30.34F
CORTEZ         CLOUDY    49  31  49 NW5       30.33F
PAGOSA SPRINGS MOSUNNY   52  19  27 S7        30.34F
TELLURIDE      MOSUNNY   50  20  30 NW3       30.35F
WOLF CREEK PAS NOT AVBL
$$

COZ009-010-012-014-032>034-037-058>063-272100-
...CENTRAL COLORADO...

CITY           SKY/WX    TMP DP  RH WIND       PRES   REMARKS
ASPEN          MOSUNNY   45  21  38 N7        30.28F
BUENA VISTA    SUNNY     52  18  25 CALM      30.27F
COPPER MTN     SUNNY     45   3  18 SW8G18    30.44F
BERTHOUD PASS  FAIR      32  28  86 NW14      30.46F WCI  22
COTTONWOOD PAS SUNNY     52  12  20 SE6       30.35F
GUNNISON       SUNNY     18  10  73 SE3       30.41F
KREMMLING      SUNNY    N/A N/A N/A CALM      30.36F
LEADVILLE      MOSUNNY   49   6  17 CALM      30.32F
MONARCH PASS   SUNNY     37  12  35 W22G29    30.53F
SALIDA         SUNNY     59  16  18 S10G21    30.32F
SUNLIGHT       SUNNY     45  19  36 CALM      30.41F
WILKERSON PASS MOSUNNY   45  12  26 SW5       30.42F
$$

COZ069>075-272100-
...SAN LUIS VALLEY/SANGRE DE CRISTO MOUNTAINS...

CITY           SKY/WX    TMP DP  RH WIND       PRES   REMARKS
ALAMOSA        MOSUNNY   47  21  35 CALM      30.33F
LA VETA PASS   NOT AVBL
SAGUACHE       MOSUNNY   36  25  64 E3        30.35F
$$

COZ035-036-038>040-272100-
...NORTHERN COLORADO FRONT RANGE...

CITY           SKY/WX    TMP DP  RH WIND       PRES   REMARKS
DENVER INTL AP PTSUNNY   72  16  12 S7        30.07F
DMNS CITY PARK   N/A     74  14  10 S5        30.06F
AURORA         PTSUNNY   71  13  11 SW7       30.08F
FRONT RANGE AP PTSUNNY   73  19  13 SW7       30.09F
ERIE MUNI ARPT MOSUNNY   69  18  14 NE5       30.06F
BOULDER MUN AP MOSUNNY   70  25  18 CALM      30.06F
CENTENNIAL     PTSUNNY   70  15  12 SW3       30.09F
BROOMFIELD     MOSUNNY  N/A N/A N/A CALM      30.09F
FORT COLLINS   MOSUNNY   68  27  21 E3        30.08F
LONGMONT       MOSUNNY   70  22  16 E5        30.08F
$$

COZ041-046-047-076>085-087-088-272100-
...PIKES PEAK/PALMER DIVIDE AND SOUTHERN FOOTHILLS...

CITY           SKY/WX    TMP DP  RH WIND       PRES   REMARKS
COLO. SPRINGS  PTSUNNY   67  19  16 S6        30.15F
A. F. ACADEMY  MOSUNNY   66  10  11 SE6       30.15F
ELLICOTT       MOSUNNY  N/A N/A N/A SW8       30.14F
FALCON         MOSUNNY   66  14  13 S6        30.19F
FORT CARSON    MOSUNNY   64  26  24 E5        30.12F
LIMON          MOSUNNY   70  15  12 SW17      30.10F
MONUMENT HILL  MOSUNNY   61  16  17 SW12      30.17F
TRINIDAD       PTSUNNY   67  26  21 VRB5      30.15F
$$

COZ042>045-048>051-090-091-272100-
...NORTHEAST COLORADO...

CITY           SKY/WX    TMP DP  RH WIND       PRES   REMARKS
GREELEY ARPT   MOSUNNY   61  32  33 NE5       30.05F
AKRON          SUNNY     69  27  20 CALM      30.06F
BURLINGTON     SUNNY     73  29  19 SW14      30.07F
WRAY           SUNNY     78  21  12 NW6       30.03F
STERLING       SUNNY     64  37  36 SE5       30.03F
HOLYOKE        SUNNY     79  23  12 W12       30.02F
FORT MORGAN    SUNNY     63  28  26 CALM      30.07F
$$

COZ086-089-092>099-272100-
...SOUTHEAST COLORADO...

CITY           SKY/WX    TMP DP  RH WIND       PRES   REMARKS
PUEBLO         MOSUNNY   67  23  19 CALM      30.09F
LA JUNTA       MOSUNNY   69  31  24 S5        30.09F
LAMAR          MOSUNNY   67  31  26 W3        30.07F
SPRINGFIELD      N/A     71  22  15 SW13G25   30.11F
$$


USA.gov is the U.S. government's official web portal to all federal, state and local government web resources and services.